Weather History for Nogales, AZ

Change the Weather History Date:

Thursday, November 22, 2012

  Actual Average (KTUS) Record (KTUS)
Temperature  
Mean Temperature 61 °F 57 °F  
Max Temperature 79 °F 71 °F 90 °F (1924)
Min Temperature 43 °F 44 °F 24 °F (1979)
Degree Days  
Heating Degree Days 4 8  
Month to date heating degree days 108  
Since 1 July heating degree days 132  
Cooling Degree Days 0 0  
Month to date cooling degree days 25  
Year to date cooling degree days 3144  
Growing Degree Days 11 (Base 50)    
Moisture  
Dew Point 28 °F    
Average Humidity 35    
Maximum Humidity 60    
Minimum Humidity 14    
Precipitation  
Precipitation 0.00 in 0.02 in 2.09 in (1931)
Month to date precipitation 0.38  
Year to date precipitation 10.47  
Sea Level Pressure  
Sea Level Pressure 30.02 in    
Wind  
Wind Speed 2 mph (NE)    
Max Wind Speed 10 mph    
Max Gust Speed -    
Visibility 10 miles    
Events      
T = Trace of Precipitation, MM = Missing Value Source: NWS Daily Summary

Daily Weather History Graph

Daily Weather History Graph

Search for Another Location

Airport:

Trip Planner

Search our weather history database for the weather conditions in past years. The results will help you decide how hot, cold, wet, or windy it might be!

Date:

Astronomy

Nov. 22, 2012 Rise Set
Actual Time 6:57 AM MST 5:21 PM MST
Civil Twilight 6:31 AM MST 5:47 PM MST
Nautical Twilight 6:01 AM MST 6:17 PM MST
Astronomical Twilight 5:32 AM MST 6:46 PM MST
Moon 1:52 PM MST (11/22) 1:39 AM MST (11/22)
Length of Visible Light 11h 16m
Length of Day
10h 23m
Waxing Gibbous, 72% of the Moon is Illuminated
Nov 22
Waxing Gibbous
Nov 28
Full
Dec 6
Last Quarter
Dec 13
New
Dec 19
First Quarter

Hourly Weather History & Observations

Time (MST) Temp. Windchill Dew Point Humidity Pressure Visibility Wind Dir Wind Speed Gust Speed Precip Events Conditions
12:54 AM 48.0 °F - 30.0 °F 50% 29.97 in 10.0 mi North 3.5 mph - N/A   Clear
1:54 AM 46.9 °F - 30.0 °F 52% 29.97 in 10.0 mi Calm Calm - N/A   Clear
2:54 AM 48.0 °F - 30.0 °F 50% 29.97 in 10.0 mi Calm Calm - N/A   Clear
3:54 AM 46.0 °F - 30.0 °F 54% 29.97 in 10.0 mi Calm Calm - N/A   Clear
4:54 AM 44.1 °F 42.5 °F 30.9 °F 60% 29.99 in 10.0 mi ENE 3.5 mph - N/A   Clear
5:54 AM 45.0 °F - 30.0 °F 56% 30.01 in 10.0 mi Calm Calm - N/A   Clear
6:54 AM 43.0 °F 41.3 °F 30.0 °F 60% 30.05 in 10.0 mi East 3.5 mph - N/A   Clear
7:54 AM 46.0 °F - 32.0 °F 58% 30.07 in 10.0 mi Calm Calm - N/A   Clear
8:54 AM 55.0 °F - 32.0 °F 42% 30.07 in 10.0 mi Calm Calm - N/A   Clear
9:54 AM 64.0 °F - 32.0 °F 30% 30.06 in 10.0 mi Calm Calm - N/A   Clear
10:54 AM 71.1 °F - 30.9 °F 23% 30.04 in 10.0 mi Variable 3.5 mph - N/A   Clear
11:54 AM 75.0 °F - 27.0 °F 17% 30.01 in 10.0 mi Variable 4.6 mph - N/A   Clear
12:54 PM 78.1 °F - 24.1 °F 14% 29.99 in 10.0 mi North - - N/A   Clear
1:54 PM 78.1 °F - 25.0 °F 14% 29.97 in 10.0 mi Variable 5.8 mph - N/A   Clear
2:54 PM 78.1 °F - 26.1 °F 15% 29.96 in 10.0 mi Variable 3.5 mph - N/A   Clear
3:54 PM 79.0 °F - 26.1 °F 14% 29.96 in 10.0 mi Variable 3.5 mph - N/A   Clear
4:54 PM 75.0 °F - 26.1 °F 16% 29.99 in 10.0 mi WNW 4.6 mph - N/A   Clear
5:54 PM 68.0 °F - 26.1 °F 21% 30.01 in 10.0 mi NE 10.4 mph - N/A   Clear
6:54 PM 64.0 °F - 25.0 °F 23% 30.04 in 10.0 mi Calm Calm - N/A   Clear
7:54 PM 57.0 °F - 25.0 °F 29% 30.07 in 10.0 mi Calm Calm - N/A   Clear
8:54 PM 55.0 °F - 25.0 °F 31% 30.08 in 10.0 mi Variable 3.5 mph - N/A   Clear
9:54 PM 53.1 °F - 26.1 °F 35% 30.07 in 10.0 mi ENE 3.5 mph - N/A   Clear
10:54 PM 51.1 °F - 25.0 °F 36% 30.07 in 10.0 mi Calm Calm - N/A   Clear
11:54 PM 48.9 °F - 25.0 °F 39% 30.07 in 10.0 mi ENE 5.8 mph - N/A   Clear